This demonstration page uses our WeatherBlox Daily Observations layout. Learn more.

Left ArrowRight Arrow

Hourly Observations for December 21, 2016

Temp ( °F °C ) Dew Point ( °F °C ) Humidity (%) Winds ( mph kmh ) Pressure ( in mb ) Visibility ( mi km ) Precip ( " mm )
12:00 am 00:00 Clear 21 -6 18 -8 86 86 N N/A 30.30 1026 10 16 N/A
12:20 am 00:20 Clear 21 -6 16 -9 80 80 N N/A 30.30 1026 10 16 N/A
12:39 am 00:39 Clear 19 -7 16 -9 86 86 N N/A 30.30 1026 10 16 N/A
1:00 am 01:00 Clear 18 -8 16 -9 93 93 S 3 6 30.30 1026 10 16 N/A
1:20 am 01:20 Clear 19 -7 16 -9 86 86 N N/A 30.30 1026 10 16 N/A
1:40 am 01:40 Clear 19 -7 16 -9 86 86 N N/A 30.30 1026 10 16 N/A
1:59 am 01:59 Clear 19 -7 16 -9 86 86 N N/A 30.30 1026 10 16 N/A
2:20 am 02:20 Clear 19 -7 16 -9 86 86 S 3 6 30.30 1026 10 16 N/A
2:40 am 02:40 Clear 18 -8 16 -9 93 93 S 6 9 30.30 1026 10 16 N/A
2:59 am 02:59 Clear 19 -7 18 -8 93 93 S 5 7 30.30 1026 10 16 N/A
3:20 am 03:20 Clear 21 -6 18 -8 86 86 N N/A 30.30 1026 10 16 N/A
3:39 am 03:39 Clear 21 -6 18 -8 86 86 SSW 5 7 30.30 1026 10 16 N/A
3:59 am 03:59 Clear 21 -6 19 -7 93 93 S 5 7 30.30 1026 10 16 N/A
4:20 am 04:20 Clear 23 -5 19 -7 86 86 S 7 11 30.27 1025 10 16 N/A
4:39 am 04:39 Clear 23 -5 19 -7 86 86 S 7 11 30.27 1025 10 16 N/A
4:59 am 04:59 Clear 25 -4 19 -7 80 80 S 7 11 30.27 1025 10 16 N/A
5:20 am 05:20 Clear 25 -4 19 -7 80 80 S 7 11 30.27 1025 10 16 N/A
5:39 am 05:39 Clear 23 -5 19 -7 86 86 S 6 9 30.27 1025 10 16 N/A
6:00 am 06:00 Clear 23 -5 19 -7 86 86 S 7 11 30.27 1025 10 16 N/A
6:20 am 06:20 Clear 23 -5 19 -7 86 86 S 7 11 30.27 1025 10 16 N/A
6:39 am 06:39 Clear 23 -5 19 -7 86 86 S 6 9 30.27 1025 10 16 N/A
7:00 am 07:00 Clear 23 -5 19 -7 86 86 S 6 9 30.30 1026 10 16 N/A
7:20 am 07:20 Clear 23 -5 19 -7 86 86 SSW 5 7 30.30 1026 7 11 N/A
7:39 am 07:39 Clear 23 -5 21 -6 93 93 SSW 6 9 30.30 1026 7 11 N/A
8:00 am 08:00 Clear 21 -6 19 -7 93 93 S 7 11 30.27 1025 7 11 N/A
8:20 am 08:20 Sunny 23 -5 19 -7 86 86 S 6 9 30.27 1025 7 11 N/A
8:40 am 08:40 Sunny 23 -5 21 -6 93 93 S 6 9 30.27 1025 5 8 N/A
9:00 am 09:00 Sunny 23 -5 21 -6 93 93 S 5 7 30.27 1025 5 8 N/A
9:19 am 09:19 Sunny 23 -5 21 -6 93 93 S 5 7 30.27 1025 5 8 N/A
9:40 am 09:40 Sunny 25 -4 21 -6 86 86 SSE 6 9 30.27 1025 5 8 N/A
10:00 am 10:00 Sunny 25 -4 21 -6 86 86 S 7 11 30.27 1025 5 8 N/A
10:19 am 10:19 Sunny 27 -3 23 -5 86 86 SSE 6 9 30.27 1025 5 8 N/A
10:40 am 10:40 Sunny 28 -2 23 -5 80 80 S 8 13 30.24 1024 7 11 N/A
10:59 am 10:59 Sunny 28 -2 25 -4 86 86 S 7 11 30.24 1024 7 11 N/A
11:20 am 11:20 Sunny 30 -1 25 -4 80 80 S 7 11 30.24 1024 7 11 N/A
11:39 am 11:39 Sunny 30 -1 25 -4 80 80 S 8 13 30.24 1024 7 11 N/A
12:00 pm 12:00 Sunny 32 undefined 25 -4 75 75 S 9 15 30.24 1024 7 11 N/A
12:20 pm 12:20 Sunny 32 undefined 25 -4 75 75 S 10 17 30.24 1024 10 16 N/A
12:39 pm 12:39 Sunny 32 undefined 25 -4 75 75 S 12 19 30.24 1024 10 16 N/A
1:00 pm 13:00 Sunny 34 1 25 -4 70 70 S 9 15 30.21 1023 10 16 N/A
1:20 pm 13:20 Sunny 34 1 25 -4 70 70 S 7 11 30.21 1023 10 16 N/A
1:39 pm 13:39 Sunny 34 1 25 -4 70 70 S 7 11 30.18 1022 10 16 N/A
2:00 pm 14:00 Sunny 36 2 25 -4 65 65 S 9 15 30.18 1022 10 16 N/A
2:20 pm 14:20 Sunny 37 3 27 -3 65 65 S 10 17 30.15 1021 10 16 N/A
2:39 pm 14:39 Sunny 37 3 27 -3 65 65 S 9 15 30.12 1020 10 16 N/A
3:00 pm 15:00 Sunny 37 3 27 -3 65 65 S 8 13 30.15 1021 10 16 N/A
3:20 pm 15:20 Sunny 37 3 27 -3 65 65 S 9 15 30.12 1020 10 16 N/A
3:39 pm 15:39 Sunny 37 3 27 -3 65 65 S 10 17 30.12 1020 10 16 N/A
4:00 pm 16:00 Sunny 36 2 27 -3 70 70 S 9 15 30.12 1020 10 16 N/A
4:20 pm 16:20 Sunny 37 3 27 -3 65 65 S 9 15 30.12 1020 10 16 N/A
4:39 pm 16:39 Sunny 37 3 27 -3 65 65 S 10 17 30.12 1020 10 16 N/A
5:00 pm 17:00 Sunny 36 2 27 -3 70 70 S 9 15 30.12 1020 10 16 N/A
5:20 pm 17:20 Sunny 36 2 27 -3 70 70 S 8 13 30.12 1020 10 16 N/A
5:39 pm 17:39 Clear 34 1 28 -2 81 81 S 8 13 30.12 1020 10 16 N/A
6:00 pm 18:00 Clear 34 1 28 -2 81 81 S 7 11 30.12 1020 10 16 N/A
6:20 pm 18:20 Clear 32 undefined 28 -2 87 87 S 7 11 30.12 1020 10 16 N/A
6:39 pm 18:39 Clear 34 1 28 -2 81 81 S 10 17 30.12 1020 10 16 N/A
7:00 pm 19:00 Clear 34 1 28 -2 81 81 S 12 19 30.09 1019 10 16 N/A
7:20 pm 19:20 Clear 34 1 28 -2 81 81 S 13 20 30.09 1019 10 16 N/A
7:39 pm 19:39 Clear 34 1 28 -2 81 81 S 13 20 30.09 1019 10 16 N/A
8:00 pm 20:00 Clear 34 1 28 -2 81 81 S 14 22 30.09 1019 10 16 N/A
8:19 pm 20:19 Clear 34 1 28 -2 81 81 S 13 20 30.09 1019 10 16 N/A
8:40 pm 20:40 Clear 34 1 28 -2 81 81 SSW 12 19 30.09 1019 10 16 N/A
9:00 pm 21:00 Clear 34 1 27 -3 75 75 SSW 10 17 30.09 1019 10 16 N/A
9:19 pm 21:19 Clear 32 undefined 27 -3 80 80 SSW 9 15 30.09 1019 10 16 N/A
9:40 pm 21:40 Clear 32 undefined 27 -3 80 80 SSW 9 15 30.09 1019 10 16 N/A
9:59 pm 21:59 Clear 32 undefined 27 -3 80 80 SSW 7 11 30.09 1019 10 16 N/A
10:19 pm 22:19 Clear 30 -1 27 -3 86 86 S 6 9 30.09 1019 10 16 N/A
10:40 pm 22:40 Clear 30 -1 27 -3 86 86 SSW 8 13 30.09 1019 10 16 N/A
10:59 pm 22:59 Clear 32 undefined 27 -3 80 80 SW 9 15 30.09 1019 10 16 N/A
11:20 pm 23:20 Clear 32 undefined 27 -3 80 80 SW 9 15 30.09 1019 10 16 N/A
11:40 pm 23:40 Clear 32 undefined 27 -3 80 80 SW 8 13 30.09 1019 10 16 N/A
11:59 pm 23:59 Clear 32 undefined 27 -3 80 80 SW 7 11 30.09 1019 10 16 N/A

Powered by AerisWeather